Flag for Philippines Weather past 2 weeks in Olongapo, Philippines

Now
81 °F

Passing clouds.


Feels Like: 81 °F
Forecast: 72 / 83 °F
Wind: 9 mph from East

Location: Subic Bay Weather Station

Current Time: Jan 31, 2015 at 7:01:41 PM

Latest Report: Jan 31, 2015 at 6:00 PM


Visibility: N/A

Pressure: 29.95 "Hg

Humidity: 51%

Dew point: 61 °F

Location of OlongapoLocation

Historic Weather in Olongapo — Graph

°F

Olongapo temperature yesterday

Maximum temperature yesterday: 88 °F (at 12:00 PM)
Minimum temperature yesterday: 70 °F (at 6:00 AM)
Average temperature yesterday: 79 °F

Past Weeks' High & Low Weather Summary

 TemperatureHumidityPressure
High90 °F (Jan 28, 1:00 PM)100% (Jan 17, 9:00 PM)30.04 "Hg (Jan 17, 9:00 PM)
Low68 °F (Jan 18, 11:00 PM)40% (Jan 31, 5:00 PM)29.80 "Hg (Jan 18, 2:00 PM)
Average78 °F68%29.91 "Hg
* Reported Jan 16 6:00 PM — Jan 31 6:00 PM, Olongapo, Weather by CustomWeather, © 2014

Note: Actual official high and low records may vary slightly from our data, if they occured in-between our weather recording intervals... More about our weather records

Advertising

Olongapo weather history for previous 24 hours

 ConditionsComfort  
Time TempWeatherWind HumidityBarometerVisibility
6:00 PM
Jan 31
81 °FPassing clouds.9 mph51%29.95 "HgN/A
5:00 PM84 °FPassing clouds.17 mph40%29.92 "HgN/A
4:00 PM84 °FPassing clouds.18 mph74%29.92 "HgN/A
3:00 PM86 °FPassing clouds.20 mph43%29.92 "HgN/A
2:00 PM84 °FScattered clouds.20 mph45%29.95 "HgN/A
1:00 PM86 °FPassing clouds.22 mph43%29.98 "HgN/A
12:00 PM86 °FPassing clouds.20 mph46%29.98 "HgN/A
11:00 AM84 °FPassing clouds.17 mph43%30.01 "HgN/A
10:00 AM82 °FPassing clouds.17 mph48%30.01 "HgN/A
9:00 AM79 °FPassing clouds.15 mph58%N/AN/A
8:00 AM77 °FPassing clouds.7 mph65%30.01 "HgN/A
7:00 AM73 °FPassing clouds.No wind74%29.98 "HgN/A
6:00 AM72 °FPassing clouds.1 mph78%29.98 "HgN/A
5:00 AM72 °FPassing clouds.No wind78%29.95 "HgN/A
4:00 AM72 °FPassing clouds.2 mph83%29.95 "HgN/A
2:00 AM72 °FPassing clouds.2 mph83%29.95 "HgN/A
1:00 AM73 °FPassing clouds.No wind78%29.95 "HgN/A
12:00 AM73 °FPassing clouds.No wind78%29.98 "HgN/A
11:00 PM
Jan 30
73 °FPassing clouds.1 mph78%29.98 "HgN/A
10:00 PM73 °FPassing clouds.1 mph78%29.98 "HgN/A
9:00 PM77 °FPassing clouds.1 mph74%29.98 "HgN/A
8:00 PM77 °FPassing clouds.1 mph74%29.95 "HgN/A
7:00 PM81 °FPassing clouds.No wind66%29.95 "HgN/A
Weather by CustomWeather, © 2014

See weather overviewHow to use our weather pages